Powrót do katalogu

THORAD DELTA 1 DEB

AktywnyLEO
NORAD 8179·DEBRIS·🇺🇸 United States

Wystrzelony Nov 15, 1974 z Vandenberg Space Force Base

Loading…

Następne Przeloty (najbliższe 24 godziny)

TLE

ŚwieżeSource: Space-Track

Epoka: Sep 14, 2026, 13:52 UTC

1  8179U 74089AV  26257.57781350 -.00000005  00000-0  28212-3 0  9995
2  8179 101.5486   3.5346 0099947  81.9148 348.7834 12.33944646333910

Śledź THORAD DELTA 1 DEB w czasie rzeczywistym z AllMySat

Download on the App Store